Hourly Weather Russowek

Today, 22 April, Thursday

Time Temperature Precipitation Wind Pressure Humidity
00:00 +6°C° 0.2 mm 4 mps 747 mmHg 85%
01:00 +5°C° 0 mm 4 mps 748 mmHg 92%
02:00 +5°C° 0.3 mm 4 mps 748 mmHg 89%
03:00 +5°C° 0.3 mm 4 mps 748 mmHg 86%
04:00 +5°C° 0.3 mm 4 mps 748 mmHg 82%
05:00 +3°C° 0.1 mm 5 mps 748 mmHg 80%
06:00 +3°C° 0.1 mm 5 mps 749 mmHg 77%
07:00 +2°C° 0.1 mm 6 mps 749 mmHg 75%
08:00 +3°C° 0 mm 7 mps 749 mmHg 71%
09:00 +3°C° 0 mm 7 mps 750 mmHg 68%
10:00 +4°C° 0 mm 7 mps 750 mmHg 64%
11:00 +4°C° 0 mm 7 mps 750 mmHg 62%
12:00 +5°C° 0 mm 7 mps 751 mmHg 59%
13:00 +5°C° 0 mm 7 mps 751 mmHg 57%
14:00 +5°C° 0.2 mm 7 mps 751 mmHg 59%
15:00 +5°C° 0.2 mm 7 mps 750 mmHg 62%
16:00 +6°C° 0.2 mm 7 mps 750 mmHg 64%
17:00 +5°C° 0.4 mm 6 mps 751 mmHg 69%
18:00 +5°C° 0.4 mm 5 mps 751 mmHg 73%
19:00 +4°C° 0.4 mm 4 mps 751 mmHg 77%
20:00 +3°C° 0 mm 3 mps 751 mmHg 77%
21:00 +2°C° 0 mm 3 mps 752 mmHg 77%
22:00 +3°C° 0 mm 2 mps 752 mmHg 76%
23:00 +2°C° 0 mm 2 mps 752 mmHg 78%

Tomorrow, 23 April, Friday

Time Temperature Precipitation Wind Pressure Humidity
00:00 +1°C° 0 mm 3 mps 752 mmHg 80%
01:00 +1°C° 0 mm 3 mps 752 mmHg 82%
02:00 0°C° 0 mm 3 mps 752 mmHg 85%
03:00 0°C° 0 mm 3 mps 752 mmHg 89%
04:00 -2°C° 0 mm 4 mps 753 mmHg 92%
05:00 -1°C° 0 mm 4 mps 753 mmHg 90%
06:00 0°C° 0 mm 5 mps 753 mmHg 89%
07:00 +1°C° 0 mm 6 mps 753 mmHg 88%
08:00 +2°C° 0.1 mm 6 mps 754 mmHg 85%
09:00 +2°C° 0.1 mm 6 mps 754 mmHg 82%
10:00 +3°C° 0.1 mm 7 mps 754 mmHg 79%
11:00 +3°C° 0.1 mm 7 mps 754 mmHg 78%
12:00 +3°C° 0.1 mm 7 mps 754 mmHg 76%
13:00 +3°C° 0.1 mm 7 mps 754 mmHg 74%
14:00 +4°C° 0.1 mm 7 mps 754 mmHg 72%
15:00 +5°C° 0.1 mm 7 mps 754 mmHg 69%
16:00 +5°C° 0.1 mm 7 mps 754 mmHg 67%
17:00 +4°C° 0.1 mm 6 mps 754 mmHg 66%
18:00 +3°C° 0.1 mm 5 mps 754 mmHg 66%
19:00 +3°C° 0.1 mm 3 mps 755 mmHg 65%
20:00 +2°C° 0 mm 3 mps 755 mmHg 65%
21:00 +1°C° 0 mm 3 mps 755 mmHg 65%
22:00 +1°C° 0 mm 2 mps 755 mmHg 65%
23:00 0°C° 0 mm 3 mps 756 mmHg 65%

Day after tomorrow, 24 April, Saturday

Time Temperature Precipitation Wind Pressure Humidity
00:00 0°C° 0 mm 3 mps 756 mmHg 64%
01:00 0°C° 0 mm 3 mps 756 mmHg 64%
02:00 -1°C° 0 mm 3 mps 756 mmHg 65%
03:00 -1°C° 0 mm 3 mps 756 mmHg 65%
04:00 -1°C° 0 mm 3 mps 756 mmHg 66%
05:00 0°C° 0 mm 3 mps 756 mmHg 62%
06:00 +2°C° 0 mm 3 mps 756 mmHg 58%
07:00 +3°C° 0 mm 3 mps 756 mmHg 54%
08:00 +5°C° 0 mm 4 mps 756 mmHg 53%
09:00 +6°C° 0 mm 4 mps 755 mmHg 52%
10:00 +8°C° 0 mm 4 mps 755 mmHg 51%
11:00 +8°C° 0.1 mm 5 mps 755 mmHg 53%
12:00 +8°C° 0.1 mm 5 mps 755 mmHg 55%
13:00 +8°C° 0.1 mm 5 mps 754 mmHg 57%
14:00 +8°C° 0.2 mm 5 mps 754 mmHg 59%
15:00 +8°C° 0.2 mm 5 mps 754 mmHg 60%
16:00 +8°C° 0.2 mm 5 mps 754 mmHg 61%
17:00 +7°C° 0.1 mm 4 mps 754 mmHg 66%
18:00 +5°C° 0.1 mm 4 mps 754 mmHg 72%
19:00 +4°C° 0.1 mm 3 mps 754 mmHg 77%
20:00 +4°C° 0 mm 3 mps 754 mmHg 79%
21:00 +4°C° 0 mm 2 mps 754 mmHg 81%
22:00 +4°C° 0 mm 2 mps 754 mmHg 83%
23:00 +3°C° 0 mm 2 mps 754 mmHg 85%

25 April, Sunday

Time Temperature Precipitation Wind Pressure Humidity
00:00 +3°C° 0 mm 1 mps 755 mmHg 87%
01:00 +3°C° 0 mm 1 mps 755 mmHg 89%
02:00 +2°C° 0 mm 1 mps 755 mmHg 89%
03:00 +1°C° 0 mm 2 mps 755 mmHg 89%
04:00 -1°C° 0 mm 2 mps 755 mmHg 89%
05:00 0°C° 0 mm 3 mps 755 mmHg 82%
06:00 0°C° 0 mm 4 mps 755 mmHg 74%
07:00 +1°C° 0 mm 4 mps 755 mmHg 67%
08:00 +3°C° 0 mm 5 mps 755 mmHg 58%
09:00 +4°C° 0 mm 6 mps 755 mmHg 49%
10:00 +7°C° 0 mm 6 mps 755 mmHg 39%
11:00 +7°C° 0 mm 6 mps 755 mmHg 38%
12:00 +8°C° 0 mm 6 mps 755 mmHg 38%
13:00 +8°C° 0 mm 6 mps 754 mmHg 37%
14:00 +8°C° 0.1 mm 7 mps 754 mmHg 41%
15:00 +8°C° 0.1 mm 7 mps 754 mmHg 45%
16:00 +6°C° 0.1 mm 7 mps 754 mmHg 49%
17:00 +6°C° 0.1 mm 5 mps 754 mmHg 55%
18:00 +4°C° 0.1 mm 4 mps 754 mmHg 61%
19:00 +3°C° 0.1 mm 3 mps 754 mmHg 67%
20:00 +2°C° 0 mm 3 mps 754 mmHg 67%
21:00 +3°C° 0 mm 2 mps 754 mmHg 67%
22:00 +2°C° 0 mm 2 mps 754 mmHg 67%
23:00 +2°C° 0 mm 2 mps 754 mmHg 67%

26 April, Monday

Time Temperature Precipitation Wind Pressure Humidity
00:00 +2°C° 0 mm 2 mps 754 mmHg 68%
01:00 +1°C° 0 mm 2 mps 753 mmHg 68%
02:00 0°C° 0 mm 3 mps 753 mmHg 71%
03:00 -1°C° 0 mm 3 mps 753 mmHg 74%
04:00 -1°C° 0 mm 3 mps 753 mmHg 76%
05:00 0°C° 0 mm 3 mps 753 mmHg 72%
06:00 +2°C° 0 mm 3 mps 753 mmHg 68%
07:00 +3°C° 0 mm 3 mps 753 mmHg 63%
08:00 +5°C° 0 mm 4 mps 753 mmHg 57%
09:00 +6°C° 0 mm 4 mps 752 mmHg 50%
10:00 +7°C° 0 mm 4 mps 752 mmHg 43%
11:00 +8°C° 0 mm 4 mps 752 mmHg 42%
12:00 +10°C° 0 mm 4 mps 752 mmHg 40%
13:00 +10°C° 0 mm 4 mps 752 mmHg 39%
14:00 +10°C° 0 mm 4 mps 751 mmHg 39%
15:00 +10°C° 0 mm 3 mps 751 mmHg 40%
16:00 +10°C° 0 mm 3 mps 751 mmHg 41%
17:00 +9°C° 0 mm 2 mps 751 mmHg 46%
18:00 +8°C° 0 mm 2 mps 751 mmHg 52%
19:00 +7°C° 0 mm 1 mps 750 mmHg 58%
20:00 +7°C° 0 mm 1 mps 750 mmHg 60%
21:00 +6°C° 0 mm 1 mps 751 mmHg 63%
22:00 +5°C° 0 mm 1 mps 751 mmHg 66%
23:00 +4°C° 0 mm 1 mps 751 mmHg 69%

27 April, Tuesday

Time Temperature Precipitation Wind Pressure Humidity
00:00 +3°C° 0 mm 2 mps 750 mmHg 73%
01:00 +2°C° 0 mm 2 mps 750 mmHg 77%
02:00 +2°C° 0 mm 2 mps 750 mmHg 79%
03:00 0°C° 0 mm 3 mps 750 mmHg 82%
04:00 0°C° 0 mm 3 mps 749 mmHg 85%
05:00 +1°C° 0 mm 3 mps 749 mmHg 80%
06:00 +1°C° 0 mm 4 mps 749 mmHg 75%
07:00 +4°C° 0 mm 4 mps 749 mmHg 70%
08:00 +5°C° 0 mm 4 mps 749 mmHg 66%
09:00 +7°C° 0 mm 5 mps 749 mmHg 61%
10:00 +9°C° 0 mm 5 mps 748 mmHg 56%
11:00 +9°C° 0 mm 5 mps 748 mmHg 53%
12:00 +10°C° 0 mm 5 mps 747 mmHg 51%
13:00 +12°C° 0 mm 5 mps 747 mmHg 49%
14:00 +12°C° 0 mm 5 mps 746 mmHg 50%
15:00 +12°C° 0 mm 5 mps 746 mmHg 51%
16:00 +12°C° 0 mm 5 mps 745 mmHg 52%
17:00 +10°C° 0 mm 5 mps 745 mmHg 56%
18:00 +9°C° 0 mm 5 mps 745 mmHg 60%
19:00 +8°C° 0 mm 5 mps 744 mmHg 64%
20:00 +7°C° 0 mm 6 mps 744 mmHg 64%
21:00 +7°C° 0 mm 6 mps 744 mmHg 64%
22:00 +7°C° 0 mm 6 mps 744 mmHg 64%
23:00 +5°C° 0 mm 6 mps 743 mmHg 64%
Show more